CW7104 Weather Reports


time (UTC)temp
F
wind
direction
speed
knots
gust
knots
rain 1hr
in
rain 24hr
in
rain mn
in
humidity
%
barometer
mb
20260902234904 94 227 0.0 0.0 0.00 0.00 0.00 47 1014.7
20260902234404 94 182 0.0 0.0 0.00 0.00 0.00 46 1014.7
20260902233905 95 216 0.0 4.3 0.00 0.00 0.00 46 1014.5
20260902233405 95 207 0.0 0.0 0.00 0.00 0.00 46 1014.5
20260902232404 95 182 0.0 2.6 0.00 0.00 0.00 45 1014.4
20260902231904 95 220 0.9 6.1 0.00 0.00 0.00 45 1014.5
20260902231405 95 200 0.0 6.1 0.00 0.00 0.00 45 1014.5
20260902230905 95 220 0.0 4.3 0.00 0.00 0.00 45 1014.6
20260902225904 95 176 0.0 6.1 0.00 0.00 0.00 44 1014.6
20260902225404 95 190 0.9 5.2 0.00 0.00 0.00 44 1014.5
20260902224405 96 232 2.6 8.7 0.00 0.00 0.00 43 1014.5
20260902223404 97 235 0.0 0.0 0.00 0.00 0.00 41 1014.6
20260902222905 98 199 0.0 4.3 0.00 0.00 0.00 41 1014.6
20260902222405 98 161 2.6 7.0 0.00 0.00 0.00 40 1014.6
20260902220905 100 211 0.9 5.2 0.00 0.00 0.00 40 1014.6
20260902220404 100 196 1.7 10.4 0.00 0.00 0.00 40 1014.7
20260902215904 100 195 0.0 5.2 0.00 0.00 0.00 39 1014.6
20260902215404 100 217 1.7 6.1 0.00 0.00 0.00 38 1014.7
20260902214905 100 222 0.0 5.2 0.00 0.00 0.00 39 1014.7
20260902214405 100 212 2.6 8.7 0.00 0.00 0.00 39 1014.7
20260902213904 100 220 0.9 4.3 0.00 0.00 0.00 36 1014.8
20260902213404 100 165 1.7 7.0 0.00 0.00 0.00 35 1014.8
20260902212905 100 214 2.6 7.8 0.00 0.00 0.00 36 1014.8
20260902212405 100 175 0.9 5.2 0.00 0.00 0.00 37 1014.8
20260902211905 100 187 2.6 7.8 0.00 0.00 0.00 37 1014.8
20260902211405 100 205 1.7 7.0 0.00 0.00 0.00 37 1014.9
20260902210405 101 196 2.6 8.7 0.00 0.00 0.00 38 1014.9
20260902205404 101 164 0.9 7.0 0.00 0.00 0.00 38 1015.0
20260902204905 101 176 0.9 6.1 0.00 0.00 0.00 36 1015.0
20260902204405 101 231 0.9 5.2 0.00 0.00 0.00 37 1015.0
20260902203904 101 149 0.0 5.2 0.00 0.00 0.00 38 1015.1
20260902203404 101 174 1.7 10.4 0.00 0.00 0.00 40 1015.1
20260902202905 101 155 1.7 8.7 0.00 0.00 0.00 39 1015.1
20260902202404 100 172 1.7 6.1 0.00 0.00 0.00 39 1015.2
20260902201904 100 182 0.9 6.1 0.00 0.00 0.00 40 1015.2
20260902201404 100 198 2.6 10.4 0.00 0.00 0.00 40 1015.3
20260902200404 100 148 1.7 7.8 0.00 0.00 0.00 40 1015.4
20260902195904 100 156 1.7 7.0 0.00 0.00 0.00 41 1015.4
20260902195405 100 126 0.9 10.4 0.00 0.00 0.00 41 1015.4
20260902194905 100 167 1.7 10.4 0.00 0.00 0.00 41 1015.5
20260902194404 100 137 2.6 6.1 0.00 0.00 0.00 41 1015.6
20260902193904 100 150 2.6 10.4 0.00 0.00 0.00 42 1015.6
20260902193405 100 168 2.6 10.4 0.00 0.00 0.00 41 1015.6
20260902192404 99 148 2.6 7.8 0.00 0.00 0.00 42 1015.8
20260902191904 100 187 2.6 8.7 0.00 0.00 0.00 42 1015.8
20260902191404 100 164 2.6 8.7 0.00 0.00 0.00 43 1015.9
20260902190904 100 209 1.7 10.4 0.00 0.00 0.00 42 1016.0
20260902190404 99 229 1.7 8.7 0.00 0.00 0.00 43 1016.0
20260902185404 99 250 0.9 7.8 0.00 0.00 0.00 42 1016.1
20260902184904 99 148 2.6 10.4 0.00 0.00 0.00 41 1016.1
20260902184404 100 177 2.6 7.0 0.00 0.00 0.00 42 1016.2
20260902183904 99 205 3.5 7.8 0.00 0.00 0.00 42 1016.2
20260902183404 99 210 2.6 11.3 0.00 0.00 0.00 42 1016.3
20260902182904 99 237 1.7 5.2 0.00 0.00 0.00 45 1016.3
20260902182405 99 216 0.9 6.1 0.00 0.00 0.00 44 1016.3
20260902181904 98 234 2.6 7.0 0.00 0.00 0.00 43 1016.4
20260902181404 98 192 0.9 7.8 0.00 0.00 0.00 45 1016.4
20260902180904 98 180 3.5 7.8 0.00 0.00 0.00 44 1016.4
20260902180405 99 187 2.6 8.7 0.00 0.00 0.00 45 1016.4
20260902175904 99 159 0.9 6.1 0.00 0.00 0.00 45 1016.4
20260902175404 98 179 0.9 7.8 0.00 0.00 0.00 45 1016.5
20260902174904 98 171 4.3 10.4 0.00 0.00 0.00 44 1016.5
20260902174404 98 245 2.6 7.0 0.00 0.00 0.00 44 1016.6
20260902173904 98 178 1.7 5.2 0.00 0.00 0.00 44 1016.7
20260902173404 98 205 1.7 8.7 0.00 0.00 0.00 45 1016.7
20260902172904 98 240 2.6 7.0 0.00 0.00 0.00 45 1016.8
20260902172404 98 232 0.9 7.8 0.00 0.00 0.00 47 1016.8
20260902171904 98 143 1.7 8.7 0.00 0.00 0.00 47 1016.9
20260902171404 97 243 1.7 5.2 0.00 0.00 0.00 47 1016.9
20260902170904 97 188 1.7 6.1 0.00 0.00 0.00 47 1017.0
20260902170404 97 221 0.9 6.1 0.00 0.00 0.00 48 1017.1
20260902165904 97 265 0.9 7.8 0.00 0.00 0.00 47 1017.1
20260902164904 96 223 0.0 0.0 0.00 0.00 0.00 51 1017.1
20260902164404 96 273 0.0 5.2 0.00 0.00 0.00 48 1017.2
20260902163404 96 169 0.9 5.2 0.00 0.00 0.00 51 1017.3
20260902162904 96 180 0.9 6.1 0.00 0.00 0.00 50 1017.4
20260902162404 96 237 0.0 6.1 0.00 0.00 0.00 50 1017.4
20260902161904 95 190 0.9 6.1 0.00 0.00 0.00 51 1017.5
20260902161404 95 161 0.9 6.1 0.00 0.00 0.00 52 1017.5
20260902160904 95 245 4.3 7.8 0.00 0.00 0.00 51 1017.4
20260902160404 95 140 4.3 6.1 0.00 0.00 0.00 52 1017.5
20260902155904 95 171 0.0 5.2 0.00 0.00 0.00 53 1017.5
20260902155404 94 189 0.9 5.2 0.00 0.00 0.00 52 1017.6
20260902154908 94 189 0.9 7.0 0.00 0.00 0.00 53 1017.7
20260902153904 93 193 3.5 6.1 0.00 0.00 0.00 54 1017.7
20260902153404 93 172 0.9 6.1 0.00 0.00 0.00 56 1017.7
20260902152904 93 230 1.7 7.0 0.00 0.00 0.00 54 1017.8
20260902152404 92 194 0.0 2.6 0.00 0.00 0.00 55 1017.7
20260902151904 92 165 0.0 2.6 0.00 0.00 0.00 56 1017.8
20260902151404 91 230 0.9 6.1 0.00 0.00 0.00 57 1017.7
20260902145904 89 183 2.6 6.1 0.00 0.00 0.00 60 1017.8
20260902144904 88 200 0.0 5.2 0.00 0.00 0.00 62 1017.7
20260902144404 87 225 0.0 0.0 0.00 0.00 0.00 63 1017.8
20260902143404 86 200 1.7 7.0 0.00 0.00 0.00 65 1017.8
20260902142404 85 200 1.7 6.1 0.00 0.00 0.00 68 1017.9
20260902141403 83 186 0.0 0.0 0.00 0.00 0.00 72 1018.0
20260902135904 81 207 0.0 0.0 0.00 0.00 0.00 76 1017.9
20260902135404 81 207 0.0 0.0 0.00 0.00 0.00 77 1018.0
20260902134904 80 207 0.0 0.0 0.00 0.00 0.00 78 1018.0
20260902134404 79 207 0.0 0.0 0.00 0.00 0.00 79 1018.0
20260902133403 78 206 0.0 1.7 0.00 0.00 0.00 80 1018.0
20260902132904 78 207 0.0 2.6 0.00 0.00 0.00 81 1018.1
20260902132404 77 158 0.0 0.0 0.00 0.00 0.00 81 1018.0
20260902131904 77 158 0.0 0.0 0.00 0.00 0.00 82 1018.1
20260902130904 76 144 0.0 2.6 0.00 0.00 0.00 82 1018.1
20260902130404 75 144 0.9 2.6 0.00 0.00 0.00 82 1018.1
20260902125903 75 154 0.0 0.0 0.00 0.00 0.00 82 1018.0
20260902125403 74 148 0.0 0.0 0.00 0.00 0.00 82 1018.1
20260902124904 74 177 0.0 0.0 0.00 0.00 0.00 82 1018.1
20260902124404 74 176 0.0 0.0 0.00 0.00 0.00 82 1018.1
20260902123404 73 205 0.0 0.0 0.00 0.00 0.00 82 1018.1
20260902122904 73 207 0.0 0.0 0.00 0.00 0.00 82 1018.1
20260902121904 72 207 0.0 0.0 0.00 0.00 0.00 82 1018.1
20260902121404 71 207 0.0 0.0 0.00 0.00 0.00 82 1018.0
20260902120903 71 207 0.0 0.0 0.00 0.00 0.00 82 1017.9
20260902120403 71 207 0.0 0.0 0.00 0.00 0.00 82 1017.8
20260902115404 70 207 0.0 0.0 0.00 0.00 0.00 82 1017.7
20260902114904 70 207 0.0 0.0 0.00 0.00 0.00 82 1017.6
20260902114404 70 207 0.0 0.0 0.00 0.00 0.00 82 1017.6
20260902113903 70 207 0.0 0.0 0.00 0.00 0.00 82 1017.5
20260902113404 70 207 0.0 0.0 0.00 0.00 0.00 82 1017.4
20260902112904 70 207 0.0 0.0 0.00 0.00 0.00 82 1017.3
20260902112403 70 207 0.0 0.0 0.00 0.00 0.00 82 1017.3
20260902111404 70 207 0.0 0.0 0.00 0.00 0.00 82 1017.2
20260902110904 70 207 0.0 0.0 0.00 0.00 0.00 82 1017.1
20260902110404 70 207 0.0 0.0 0.00 0.00 0.00 82 1017.0
20260902105903 70 207 0.0 0.0 0.00 0.00 0.00 82 1017.0
20260902105404 71 207 0.0 0.0 0.00 0.00 0.00 82 1017.0
20260902104904 71 207 0.0 0.0 0.00 0.00 0.00 82 1016.9
20260902104403 71 207 0.0 0.0 0.00 0.00 0.00 82 1016.9
20260902103903 71 206 0.0 0.0 0.00 0.00 0.00 82 1016.9
20260902102903 71 207 0.0 0.0 0.00 0.00 0.00 82 1016.9
20260902102404 71 207 0.0 0.0 0.00 0.00 0.00 82 1016.9
20260902101904 71 207 0.0 0.0 0.00 0.00 0.00 82 1016.9
20260902101404 71 206 0.0 0.0 0.00 0.00 0.00 82 1016.9
20260902100903 71 207 0.0 0.0 0.00 0.00 0.00 82 1016.8
20260902100403 71 207 0.0 0.0 0.00 0.00 0.00 82 1016.8
20260902095904 71 207 0.0 0.0 0.00 0.00 0.00 82 1016.8
20260902095404 71 207 0.0 0.0 0.00 0.00 0.00 82 1016.8
20260902094904 71 207 0.0 0.0 0.00 0.00 0.00 82 1016.8
20260902094404 71 207 0.0 0.0 0.00 0.00 0.00 82 1016.7
20260902093904 71 207 0.0 0.0 0.00 0.00 0.00 82 1016.7
20260902092904 71 207 0.0 0.0 0.00 0.00 0.00 82 1016.6
20260902092404 71 207 0.0 0.0 0.00 0.00 0.00 82 1016.5
20260902091904 71 207 0.0 0.0 0.00 0.00 0.00 82 1016.5
20260902090905 72 207 0.0 0.0 0.00 0.00 0.00 82 1016.4
20260902085905 72 207 0.0 0.0 0.00 0.00 0.00 82 1016.3
20260902085405 72 207 0.0 0.0 0.00 0.00 0.00 82 1016.3
20260902084905 72 206 0.0 0.0 0.00 0.00 0.00 82 1016.3
20260902084405 72 207 0.0 0.0 0.00 0.00 0.00 82 1016.4
20260902083405 72 207 0.0 0.0 0.00 0.00 0.00 82 1016.3
20260902082905 72 207 0.0 0.0 0.00 0.00 0.00 82 1016.3
20260902082405 73 207 0.0 0.0 0.00 0.00 0.00 82 1016.3
20260902081905 73 207 0.0 0.0 0.00 0.00 0.00 82 1016.2
20260902080906 73 207 0.0 0.0 0.00 0.00 0.00 82 1016.1
20260902080405 73 207 0.0 0.0 0.00 0.00 0.00 82 1016.2
20260902075405 73 207 0.0 0.0 0.00 0.00 0.00 81 1016.2
20260902074405 73 207 0.0 0.0 0.00 0.00 0.00 81 1016.3
20260902073905 73 207 0.0 0.0 0.00 0.00 0.00 81 1016.3
20260902073405 73 207 0.0 0.0 0.00 0.00 0.00 81 1016.3
20260902072905 73 207 0.0 0.0 0.00 0.00 0.00 81 1016.3
20260902072405 73 207 0.0 0.0 0.00 0.00 0.00 81 1016.2
20260902071405 73 207 0.0 0.0 0.00 0.00 0.00 81 1016.2
20260902070405 73 207 0.0 0.0 0.00 0.00 0.00 81 1016.3
20260902065905 73 207 0.0 0.0 0.00 0.00 0.00 81 1016.4
20260902065405 73 207 0.0 0.0 0.00 0.00 0.00 81 1016.3
20260902064905 73 207 0.0 0.0 0.00 0.00 0.00 81 1016.3
20260902064405 73 207 0.0 0.0 0.00 0.00 0.00 81 1016.3
20260902063905 73 207 0.0 0.0 0.00 0.00 0.00 81 1016.3
20260902062905 74 206 0.0 0.0 0.00 0.00 0.00 80 1016.2
20260902062405 74 206 0.0 0.0 0.00 0.00 0.00 80 1016.2
20260902061905 74 206 0.0 0.0 0.00 0.00 0.00 80 1016.2
20260902061405 74 206 0.0 0.0 0.00 0.00 0.00 80 1016.2
20260902060905 74 206 0.0 0.0 0.00 0.00 0.00 80 1016.3
20260902060405 74 206 0.0 0.0 0.00 0.00 0.00 80 1016.3
20260902055905 74 206 0.0 0.0 0.00 0.00 0.00 80 1016.2
20260902055405 74 206 0.0 0.0 0.00 0.00 0.00 80 1016.2
20260902054904 74 206 0.0 0.0 0.00 0.00 0.00 79 1016.3
20260902054405 75 206 0.0 0.0 0.00 0.00 0.00 79 1016.3
20260902053905 75 206 0.0 0.0 0.00 0.00 0.00 79 1016.3
20260902052905 75 206 0.0 0.0 0.00 0.00 0.00 78 1016.2
20260902051405 76 206 0.0 0.0 0.00 0.00 0.00 78 1016.1
20260902050905 76 205 0.0 0.0 0.00 0.00 0.00 78 1016.1
20260902050405 76 205 0.0 0.0 0.00 0.00 0.00 79 1016.1
20260902044904 76 205 0.0 0.0 0.00 0.00 0.00 78 1015.9
20260902044405 76 205 0.0 0.0 0.00 0.00 0.00 78 1015.9
20260902043405 77 205 0.0 0.0 0.00 0.00 0.00 77 1015.9
20260902042905 77 205 0.0 0.0 0.00 0.00 0.00 77 1016.0
20260902042405 77 205 0.0 0.0 0.00 0.00 0.00 76 1016.1
20260902041404 77 205 0.0 0.0 0.00 0.00 0.00 75 1016.1
20260902040405 78 205 0.0 0.0 0.00 0.00 0.00 75 1016.2
20260902035905 78 205 0.0 0.0 0.00 0.00 0.00 74 1016.2
20260902035405 79 205 0.0 0.0 0.00 0.00 0.00 73 1016.2
20260902034405 79 205 0.0 0.0 0.00 0.00 0.00 73 1016.1
20260902033904 79 205 0.0 0.0 0.00 0.00 0.00 72 1016.1
20260902033405 80 205 0.0 0.0 0.00 0.00 0.00 72 1016.1
20260902032905 80 205 0.0 0.0 0.00 0.00 0.00 72 1016.2
20260902031905 80 205 0.0 0.0 0.00 0.00 0.00 71 1016.2
20260902031404 80 205 0.0 0.0 0.00 0.00 0.00 71 1016.2
20260902030905 81 205 0.0 0.0 0.00 0.00 0.00 70 1016.2
20260902030405 81 205 0.0 0.0 0.00 0.00 0.00 70 1016.1
20260902025904 81 205 0.0 0.0 0.00 0.00 0.00 70 1016.2
20260902025405 81 205 0.0 0.0 0.00 0.00 0.00 69 1016.2
20260902024904 82 205 0.0 0.0 0.00 0.00 0.00 68 1016.2
20260902024405 82 205 0.0 0.0 0.00 0.00 0.00 68 1016.2
20260902023904 82 205 0.0 0.0 0.00 0.00 0.00 68 1016.2
20260902023405 82 205 0.0 0.0 0.00 0.00 0.00 68 1016.1
20260902022905 82 205 0.0 0.0 0.00 0.00 0.00 67 1016.2
20260902020905 83 205 0.0 0.0 0.00 0.00 0.00 66 1016.0
20260902020405 83 205 0.0 0.0 0.00 0.00 0.00 65 1016.0
20260902015905 84 205 0.0 0.0 0.00 0.00 0.00 65 1015.9
20260902014405 85 205 0.0 0.0 0.00 0.00 0.00 63 1015.8
20260902013404 85 205 0.0 0.0 0.00 0.00 0.00 62 1015.7
20260902012905 85 205 0.0 0.0 0.00 0.00 0.00 62 1015.6
20260902012405 86 205 0.0 0.0 0.00 0.00 0.00 61 1015.6
20260902011904 86 205 0.0 0.0 0.00 0.00 0.00 60 1015.6
20260902010905 87 205 0.0 0.0 0.00 0.00 0.00 59 1015.6
20260902010404 87 205 0.0 0.0 0.00 0.00 0.00 58 1015.5
20260902005905 88 205 0.0 0.0 0.00 0.00 0.00 57 1015.4
20260902005404 88 205 0.0 0.0 0.00 0.00 0.00 56 1015.4
20260902004404 89 205 0.0 0.0 0.00 0.00 0.00 55 1015.5
20260902003904 89 205 0.0 0.0 0.00 0.00 0.00 54 1015.4
20260902003405 89 205 0.0 0.0 0.00 0.00 0.00 54 1015.4
20260902002905 90 206 0.0 0.0 0.00 0.00 0.00 53 1015.4
20260902002404 90 207 0.0 0.0 0.00 0.00 0.00 53 1015.3
20260902001904 90 207 0.0 0.0 0.00 0.00 0.00 52 1015.3
20260902001405 91 184 0.0 0.0 0.00 0.00 0.00 52 1015.3
20260902000904 91 184 0.0 0.0 0.00 0.00 0.00 51 1015.4
20260902000406 92 184 0.0 0.0 0.00 0.00 0.00 51 1015.4
20260901235405 93 206 1.7 4.3 0.00 0.00 0.00 48 1015.4